Regional Weather Roundup
Issued by NWS

Home | Current Version | Previous Version | Graphics & Text | Print | Product List | Glossary On
Versions: 1 2 3 4 5 6 7 8 9 10 11 12 13 14 15 16 17 18 19 20 21 22 23 24 25 26 27 28 29 30 31 32 33 34 35 36 37 38 39 40 41 42 43 44 45 46 47 48 49 50
000
ASUS43 KDTX 210101
RWRMI
MICHIGAN HOURLY REGIONAL WEATHER ROUNDUP
NATIONAL WEATHER SERVICE DETROIT/PONTIAC MI
900 PM EDT WED SEP 20 2017

NOTE: "FAIR" INDICATES FEW OR NO CLOUDS BELOW 12,000 FEET WITH NO
SIGNIFICANT WEATHER AND/OR OBSTRUCTION TO VISIBILITY.

MIZ047>049-052>055-059>063-066>070-074>076-081>083-210200-
SOUTHEAST LOWER MICHIGAN

CITY           SKY/WX    TMP DP  RH WIND       PRES   REMARKS
ADRIAN         CLEAR     71  66  84 CALM      30.00R
ALMA           CLEAR     73  58  57 CALM      29.95R
ANN ARBOR      CLEAR     71  68  90 SE5       29.99R
BAD AXE        CLEAR     66  63  90 CALM      29.99S
CARO           CLEAR     67  63  87 SE5       29.97S
DETROIT CITY   CLEAR     74  66  76 SE6       29.99R
DETROIT        PTCLDY    72  67  84 SE6       30.00R
FLINT          CLEAR     71  62  73 SE6       29.98R
GROSSE ILE     CLEAR     72  66  83 SE5       29.98S
HILLSDALE      MOCLDY    72  66  83 SE5       29.99R
HOWELL         CLEAR     72  64  74 SE5       29.98S

CITY           SKY/WX    TMP DP  RH WIND       PRES   REMARKS
JACKSON        CLEAR     76  66  71 SE6       29.98R
LAMBERTVILLE   CLEAR     73  67  83 SE3       29.99R
LANSING        CLEAR     76  62  62 SE6       29.96S
LAPEER         FAIR      70  64  81 S6        30.00R
MASON          CLEAR     74  63  69 S5        29.97S
MONROE         CLEAR     71  66  85 CALM      29.99R
MT. CLEMENS    CLEAR     69  67  93 S3        29.99R
PONTIAC        CLEAR     73  66  78 SE5       29.99R
PORT HOPE        N/A     69  66  90 S3        29.98R
PORT HURON     CLEAR     68  64  88 CALM      30.00S
TRI CITIES     CLEAR     70  65  84 SE7       29.96S
MIDLAND        FAIR      73  64  73 E5        29.94S
TROY           CLEAR     75  65  70 CALM      30.02R
SAGINAW HB     CLEAR     70  63  78 E6        29.96S
$$
MIZ043>046-050>051-056>058-064>065-071>073-077>080-210200-
SOUTHWEST LOWER MICHIGAN

CITY           SKY/WX    TMP DP  RH WIND       PRES   REMARKS
BATTLE CREEK   CLEAR     78  69  73 SE8       29.96S
BENTON HARBOR  CLEAR     78  67  68 SE6       29.90S
BIG RAPIDS     CLEAR     71  62  72 S8        29.92R
COLDWATER      CLEAR     73  71  94 SE3       29.97S
FREMONT        FAIR      78  66  67 SE5       29.89S
HOLLAND        CLEAR     78  67  68 SE8       29.91S
GRAND RAPIDS   PTCLDY    76  68  76 SE8       29.92S
IONIA          FAIR      74  64  69 SE8       29.93S
KALAMAZOO      CLEAR     78  67  68 SE5       29.94S
LUDINGTON      PTCLDY    79  65  62 SE5       29.88R
MARSHALL       CLEAR     75  69  81 SE3       29.96
MOUNT PLEASANT CLEAR     72  63  72 SE3       29.93S
MUSKEGON       PTCLDY    81  67  62 SE9       29.89S
SOUTH HAVEN    CLEAR     78  69  72 SE6       29.90S
$$
MIZ016>042-210200-
NORTHERN LOWER MICHIGAN

CITY           SKY/WX    TMP DP  RH WIND       PRES   REMARKS
ALPENA         CLEAR     67  67 100 SE8       29.96S FOG
BEAVER ISLAND  CLEAR     72  64  76 SE6       29.90R
BELLAIRE       CLEAR     68  63  83 CALM      29.93R
CADILLAC       CLEAR     75  62  63 S6        29.94R
CHARLEVOIX     CLEAR     72  64  76 SE6       29.94R
FRANKFORT      CLEAR     73  67  83 CALM      29.89R
GAYLORD        CLEAR     69  63  81 S8        29.96R
GRAYLING       CLEAR     68  63  83 E5        29.96S
HARBOR SPRINGS CLEAR     70  65  84 CALM      29.93R
HOUGHTON LAKE  CLEAR     68  63  84 SE6       29.96R
MANISTEE       CLEAR     70  66  87 E5        29.89R
OSCODA         CLEAR     69  66  90 S7        29.96F FOG
PELLSTON       CLEAR     70  64  81 CALM      29.93R
ROGERS CITY    CLEAR     68  65  89 SE8       29.96R
TRAVERSE CITY  PTCLDY    73  64  73 CALM      29.90R
$$
MIZ007>008-015-210200-
EASTERN UPPER MICHIGAN

CITY           SKY/WX    TMP DP  RH WIND       PRES   REMARKS
KINROSS        CLEAR     66  64  93 SE8       29.95R
MACKINAC ISLAN CLEAR     68  65  91 CALM      29.93R
NEWBERRY       CLEAR     66  65  97 SE6       29.90R
S. S. MARIE    MOCLDY    67  64  90 E6        29.94R FOG
$$
MIZ004>006-011>014-085-210200-
CENTRAL UPPER MICHIGAN

CITY           SKY/WX    TMP DP  RH WIND       PRES   REMARKS
MANISTIQUE     CLOUDY    65  59  81 SE5       29.87F
ESCANABA       CLOUDY    69  65  86 SE5       29.85R
MENOMINEE      LGT RAIN  70  67  90 CALM      29.86R
SAWYER-GWINN   CLOUDY    70  63  78 SW5       29.88R
$$
MIZ001>003-009>011-084-210200-
WESTERN UPPER MICHIGAN

CITY           SKY/WX    TMP DP  RH WIND       PRES   REMARKS
IRON MOUNTAIN  LGT RAIN  68  66  93 S5        29.87S FOG
HOUGHTON       MOCLDY    66  65  96 S3        29.85R FOG
COPPER HARBOR    N/A     68  65  90 SW8       29.82R
IRONWOOD       CLEAR     64  62  93 CALM      29.87R
$$

ABBREVIATIONS USED IN REMARKS
   TC - TEMPERATURE IN CELSIUS
  WCI - WIND CHILL INDEX
   HX - HEAT INDEX
  VSB - VISIBILITY





USA.gov is the U.S. government's official web portal to all federal, state and local government web resources and services.